Branson, MO

9:02 PM CDT on October 16, 2017 (GMT -0500)
Branson

Weather History for KBBG - June, 2014

Change the Weather History Date:

Saturday, June 7, 2014

  Actual Average (KHRO) Record (KHRO)
Temperature  
Mean Temperature 73 °F -  
Max Temperature 82 °F 82 °F 98 °F (1914)
Min Temperature 64 °F 61 °F 46 °F (1912)
Cooling Degree Days 8    
Growing Degree Days 23 (Base 50)    
Moisture  
Dew Point 66 °F    
Average Humidity 87    
Maximum Humidity 100    
Minimum Humidity 54    
Precipitation  
Precipitation 0.00 in - - ()
Sea Level Pressure  
Sea Level Pressure 29.94 in    
Wind  
Wind Speed 3 mph (West)    
Max Wind Speed 14 mph    
Max Gust Speed 20 mph    
Visibility 9 miles    
Events Fog , Rain    
Averages and records for this station are not official NWS values.
T = Trace of Precipitation, MM = Missing Value Source: NWS Daily Summary

Daily Weather History Graph

Daily Weather History Graph

Search for Another Location

Airport or City:

Trip Planner

Search our weather history database for the weather conditions in past years. The results will help you decide how hot, cold, wet, or windy it might be!

Date:

Astronomy

Jun. 07, 2014 Rise Set
Actual Time 5:54 AM CDT 8:29 PM CDT
Civil Twilight 5:24 AM CDT 8:59 PM CDT
Nautical Twilight 4:46 AM CDT 9:37 PM CDT
Astronomical Twilight 4:04 AM CDT 10:19 PM CDT
Moon 2:55 PM CDT (6/7) 2:07 AM CDT (6/7)
Length of Visible Light 15h 35m
Length of Day
14h 34m
Waxing Gibbous, 68% of the Moon is Illuminated
Jun 7
Waxing Gibbous
Jun 12
Full
Jun 19
Last Quarter
Jun 27
New
Jul 5
First Quarter

Hourly Weather History & Observations

Time (CDT) Temp. Heat Index Dew Point Humidity Pressure Visibility Wind Dir Wind Speed Gust Speed Precip Events Conditions
12:15 AM 66.2 °F - 64.4 °F 94% 29.95 in 10.0 mi Calm Calm - N/A   Clear
12:35 AM 66.2 °F - 66.2 °F 100% 29.96 in 10.0 mi Calm Calm - N/A   Clear
12:55 AM 66.2 °F - 64.4 °F 94% 29.98 in 3.0 mi Calm Calm - N/A   Mostly Cloudy
1:15 AM 66.2 °F - 64.4 °F 94% 29.98 in 8.0 mi Calm Calm - N/A   Scattered Clouds
1:35 AM 64.4 °F - 64.4 °F 100% 29.98 in 0.5 mi Calm Calm - N/A Fog Fog
1:55 AM 64.4 °F - 64.4 °F 100% 29.97 in 7.0 mi Calm Calm - N/A   Clear
2:15 AM 64.4 °F - 64.4 °F 100% 29.99 in 10.0 mi Calm Calm - N/A   Clear
2:35 AM 64.4 °F - 64.4 °F 100% 29.98 in 9.0 mi Calm Calm - N/A   Clear
2:55 AM 66.2 °F - 66.2 °F 100% 29.97 in 10.0 mi Calm Calm - N/A   Clear
3:15 AM 66.2 °F - 66.2 °F 100% 29.97 in 10.0 mi Calm Calm - N/A   Clear
3:35 AM 66.2 °F - 66.2 °F 100% 29.94 in 10.0 mi Calm Calm - N/A   Clear
3:55 AM 66.2 °F - 64.4 °F 94% 29.94 in 10.0 mi Calm Calm - N/A   Clear
4:15 AM 66.2 °F - 64.4 °F 94% 29.93 in 10.0 mi Calm Calm - N/A   Clear
4:35 AM 66.2 °F - 64.4 °F 94% 29.92 in 10.0 mi Calm Calm - N/A   Mostly Cloudy
4:55 AM 66.2 °F - 66.2 °F 100% 29.93 in 10.0 mi SSE 6.9 mph - N/A   Overcast
5:15 AM 66.2 °F - 64.4 °F 94% 29.92 in 10.0 mi SE 6.9 mph - N/A   Overcast
5:35 AM 66.2 °F - 64.4 °F 94% 29.91 in 10.0 mi SSE 8.1 mph - N/A   Mostly Cloudy
5:55 AM 66.2 °F - 64.4 °F 94% 29.91 in 10.0 mi SSE 4.6 mph - N/A   Partly Cloudy
6:15 AM 66.2 °F - 64.4 °F 94% 29.92 in 10.0 mi Calm Calm - N/A   Partly Cloudy
9:55 AM 80.6 °F 84.6 °F 71.6 °F 74% 29.90 in 10.0 mi SSW 11.5 mph 19.6 mph N/A   Mostly Cloudy
10:46 AM 77.0 °F - 71.6 °F 83% 29.91 in 10.0 mi SW 13.8 mph - N/A Rain Light Rain
11:45 AM 75.2 °F - 71.6 °F 89% 29.91 in 10.0 mi WSW 6.9 mph - N/A Rain Light Rain
12:45 PM 77.0 °F - 71.6 °F 83% 29.91 in 10.0 mi WNW 13.8 mph - N/A   Overcast
1:48 PM 80.6 °F 84.6 °F 71.6 °F 74% 29.90 in 10.0 mi WSW 12.7 mph 19.6 mph N/A   Mostly Cloudy
2:48 PM 80.6 °F 84.6 °F 71.6 °F 74% 29.88 in 10.0 mi WSW 9.2 mph 18.4 mph N/A   Mostly Cloudy
3:53 PM 82.4 °F 86.3 °F 69.8 °F 66% 29.88 in 10.0 mi West 11.5 mph 18.4 mph N/A   Mostly Cloudy
5:45 PM 82.4 °F 83.9 °F 64.4 °F 54% 29.90 in 10.0 mi West 9.2 mph 17.3 mph N/A   Scattered Clouds
6:45 PM 82.4 °F 83.9 °F 64.4 °F 54% 29.90 in 10.0 mi West 6.9 mph - N/A   Scattered Clouds
7:45 PM 80.6 °F 82.3 °F 64.4 °F 58% 29.91 in 10.0 mi West 4.6 mph - N/A   Mostly Cloudy
8:45 PM 73.4 °F - 64.4 °F 73% 29.92 in 10.0 mi WNW 4.6 mph - N/A   Scattered Clouds
8:55 PM 71.6 °F - 64.4 °F 78% 29.92 in 10.0 mi West 3.5 mph - N/A   Partly Cloudy
9:15 PM 71.6 °F - 64.4 °F 78% 29.93 in 10.0 mi West 3.5 mph - N/A   Clear
9:35 PM 71.6 °F - 64.4 °F 78% 29.94 in 10.0 mi Calm Calm - N/A   Clear
9:55 PM 69.8 °F - 64.4 °F 83% 29.95 in 10.0 mi Calm Calm - N/A   Partly Cloudy
10:15 PM 69.8 °F - 64.4 °F 83% 29.96 in 10.0 mi West 3.5 mph - N/A   Clear
10:35 PM 68.0 °F - 64.4 °F 88% 29.97 in 10.0 mi West 3.5 mph - N/A   Clear
10:55 PM 68.0 °F - 64.4 °F 88% 29.97 in 10.0 mi WNW 3.5 mph - N/A   Clear
11:15 PM 68.0 °F - 64.4 °F 88% 29.97 in 10.0 mi NW 6.9 mph - N/A   Clear
11:35 PM 68.0 °F - 64.4 °F 88% 29.97 in 10.0 mi NNW 10.4 mph - N/A   Clear
11:55 PM 68.0 °F - 64.4 °F 88% 29.97 in 10.0 mi NNW 9.2 mph - N/A   Clear